#timestamp,LO_Frequency,Hit 
1504724415.3,286047001.6,N
1504724435.1,286046997.4,N
1504724455.9,286046997.3,N
1504724475.7,286046999.2,N
1504724495.6,286046997.5,N
1504724515.4,286046997.7,N
1504724535.2,286046999.5,N
1504724555.1,286046996.6,N
1504724556.0,286046996.6,N
1504724575.8,286047000.7,N
1504724595.7,286047001.2,N
1504724615.5,286046998.3,N
1504724635.3,286047001.2,N
1504724655.2,286047000.5,N
1504724675.9,286046999.6,N
1504724695.7,286046995.4,N
1504724715.6,286046997.1,N
1504724735.4,286046997.4,N
1504724755.3,286046997.8,N
1504724775.1,286046998.6,N
1504724776.0,286046998.6,N
1504724795.8,286047001.3,N
1504724815.7,286047005.4,N
1504724835.5,286047004.5,N
1504724855.3,286047006.1,N
1504724875.2,286047005.7,N
1504724895.0,286047004.8,N
1504724895.9,286047004.8,N
1504724915.8,286047007.4,N
1504724935.6,286047007.2,N
1504724955.4,286047005.3,N
1504724975.3,286047007.6,N
1504724995.1,286047008.9,N
1504725015.9,286047006.4,N
1504725035.7,286047005.2,N
1504725055.5,286047003.0,N
1504725075.4,286047007.2,N
1504725095.2,286047006.3,N
1504725115.0,286047009.1,N
1504725115.9,286047009.1,N
1504725135.8,286047006.5,N
1504725155.6,286047008.9,N
1504725175.5,286047006.2,N
1504725195.3,286047006.7,N
1504725215.1,286047006.6,N
1504725235.9,286047009.2,N
1504725255.7,286047010.6,N
1504725275.5,286047009.2,N
1504725295.4,286047006.5,N
1504725315.2,286047006.9,N
1504725335.1,286047005.7,N
1504725336.0,286047005.7,N
1504725355.8,286047006.5,P
1504725375.6,286047002.8,P
1504725395.5,286047002.4,N
1504725415.3,286047002.5,N
1504725435.2,286047003.9,N
1504725455.9,286047003.5,N
1504725475.7,286046999.7,N
1504725495.6,286046999.8,N
1504725515.4,286047002.5,N
1504725535.2,286047003.7,N
1504725555.1,286047001.7,N
1504725556.0,286047001.7,N
1504725575.8,286047001.9,N
1504725595.7,286047005.8,N
1504725615.5,286047001.3,N
1504725635.3,286047005.5,N
1504725655.2,286047003.5,N
1504725675.0,286047005.9,N
1504725675.9,286047005.9,N
1504725695.8,286047003.9,N
1504725715.6,286047001.8,N
1504725735.4,286047004.4,N
1504725755.3,286047007.4,P
1504725775.1,286047001.4,N
1504725795.9,286047003.7,N
1504725815.7,286047002.4,N
1504725835.5,286047000.8,N
1504725855.4,286046999.7,N
1504725875.2,286046999.9,N
1504725895.0,286047001.2,N
1504725895.9,286047001.2,N
1504725915.8,286046998.2,N
1504725935.6,286047001.8,N
1504725955.5,286047003.9,N
1504725975.3,286047000.8,N
1504725995.1,286046996.5,N
1504726015.9,286046998.4,N
1504726035.7,286047000.6,N
1504726055.6,286046998.1,N
1504726075.4,286047001.0,N
1504726095.2,286046998.8,N
1504726115.1,286047000.2,N
1504726116.0,286047000.2,N
1504726135.8,286046998.2,N
1504726155.6,286047001.0,N
1504726175.5,286047000.0,N
1504726195.3,286046999.9,N
1504726215.2,286047000.1,N
1504726235.9,286047002.7,N
1504726255.7,286047001.8,N
1504726275.6,286047000.6,N
1504726295.4,286047000.6,N
1504726315.3,286047002.5,N
1504726335.1,286046998.3,N
1504726336.0,286046998.3,N
1504726355.8,286047002.6,N
1504726375.7,286047000.7,N
1504726395.5,286047000.1,N
1504726415.3,286046999.5,N
1504726435.2,286046999.1,N
1504726455.0,286047000.0,N
1504726455.9,286047000.0,N
1504726475.8,286047002.5,N
1504726495.6,286047003.6,N
1504726515.4,286047003.0,N
1504726535.3,286047001.8,N
1504726555.1,286047003.6,N
1504726575.9,286047004.0,N
1504726595.7,286047006.0,P
1504726615.5,286047002.4,N
1504726635.4,286047002.8,N
1504726655.2,286047002.7,N
1504726675.0,286047004.3,N
1504726676.0,286047004.3,N
1504726695.8,286047001.9,N
1504726715.6,286047003.8,N
1504726735.5,286047004.1,N
1504726755.3,286047002.5,N
1504726775.1,286046999.2,N
1504726795.9,286047000.3,N
1504726815.7,286046998.3,N
1504726835.6,286047002.1,N
1504726855.4,286047002.1,N
1504726875.2,286047003.2,N
1504726895.1,286047001.4,N
1504726896.0,286047001.4,N
1504726915.8,286047001.3,N
1504726935.6,286047000.6,N
1504726955.5,286047002.5,N
1504726975.3,286047000.9,N
1504726995.2,286047000.0,N
1504727015.9,286046998.1,N
1504727035.7,286047000.2,N
1504727055.6,286047001.8,N
1504727075.4,286047002.9,N
1504727095.3,286047005.5,P
1504727115.1,286047002.7,N
1504727116.0,286047002.7,N
1504727135.8,286047002.3,N
1504727155.7,286046999.9,N
1504727175.5,286047000.0,N
1504727195.3,286047001.7,N
1504727215.2,286046999.2,N
1504727235.0,286046999.6,N
1504727235.9,286046999.6,N
1504727255.8,286046996.6,N
1504727275.6,286047002.7,N
1504727295.4,286047000.4,N
1504727315.3,286047000.4,N
1504727335.1,286047000.9,N
1504727355.8,286047001.5,N
1504727375.7,286047000.1,N
1504727395.5,286047000.9,N
1504727415.4,286047000.0,N
1504727435.2,286046998.1,N
1504727455.0,286046999.4,N
1504727455.9,286046999.4,N
1504727475.8,286046999.2,N
1504727495.6,286046996.9,N
1504727515.5,286046998.9,N
1504727535.3,286047000.0,N
1504727555.1,286047000.5,N
1504727575.9,286046999.3,N
1504727595.7,286046998.2,N
1504727615.5,286047001.6,N
1504727635.4,286046999.3,N
1504727655.2,286047002.4,N
1504727675.1,286047000.0,N
1504727676.0,286047000.0,N
1504727695.8,286047000.2,N
1504727715.6,286047000.4,N
1504727735.5,286046999.9,N
1504727755.3,286047000.0,N
1504727775.2,286047001.0,N
1504727795.9,286047002.7,N
1504727815.7,286047000.8,N
1504727835.6,286046997.0,N
1504727855.4,286046999.3,N
1504727875.2,286046996.9,N
1504727895.1,286046997.1,N
1504727896.0,286046997.1,N
1504727915.8,286046998.9,N
1504727935.7,286047000.5,N
1504727955.5,286047000.5,N
1504727975.3,286046998.2,N
1504727995.2,286047002.7,N
